LiveATC.Net - Listen to live air traffic control over the Internet!


ICAO: KMDH  IATA: MDH   Airport: Southern Illinois Airport
City: Carbondale/Murphysboro   State/Province: Illinois
Country: United States   Continent: North America
KMDH METAR Weather: KMDH 051852Z 20005KT 10SM CLR 28/15 A3011 RMK AO2 SLP193 T02780150
KMDH Flight Activity (FlightAware)
KMDH Airport Info   (iFlightPlanner)
KMDH VFR Sectional Chart   (iFlightPlanner) 
KMDH IFR Low Chart   (iFlightPlanner) 

KMDH Ground/Tower
Feed Status: UP   Listeners: 0
Listen in your browser - HTML5 player (in browser, HTML5)
Click here to listen with your own player (launches your MP3 player)
Archive Access: KMDH Ground/Tower
FacilityFrequency
Carbondale Ground121.800
Carbondale Tower125.350
Carbondale Tower126.250

NOTICE

Unauthorized use prohibited. See LiveATC.net Terms of Service


Airport/ARTCC Code
Frequency Search
(e.g., 124.400, 128.75)
Site-wide search
 


Browse Feeds
Top 50 Feeds
HF Oceanic Feeds
Coverage Map
Bad Weather Areas

LiveATC FAQ
Offer LiveATC feed
Contact LiveATC.net
Press Inquiries

LiveATC on iPhone
LiveATC on Android

Windows Phone
Windows 8/10

LiveATC Mobile
(Mobile browser)

ATC Audio Archives
Interesting Recordings

LiveATC Forums


Home Page
About LiveATC.net
Make a Donation
Terms of Use
Privacy Policy

Canadian Air Freqs

AIRMETs/SIGMETs

FAA Airport Status
NAS Status
Arrival Demand


Server Software By:
Icecast.org
Liquidsoap